Location: Igri�s
(42.2144°N, 0.4320°W)
Time: 10:19:11
(UTC+00:00)

Meteor 1-11 Rocket - Pass Details

Date: 13 August 2020
Orbit: 832 x 915 km, 81.2° (Epoch: 18 September)

Event Time Altitude Azimuth Distance (km) Brightness Sun altitude
Exits shadow 21:42:39 41° 82° (E) 1,233 4.3 -24.5°
Drops below altitude 10° 21:47:39 10° 23° (NNE) 2,542 6.5 -25.1°
Sets 21:50:15 0° 17° (NNE) 3,498 7.4 -25.4°
